SR8WXE Weather Reports


time (UTC)temp
C
wind
direction
speed
KPH
gust
KPH
rain 1hr
cm
rain 24hr
cm
rain mn
cm
humidity
%
barometer
mb
20260902153331 20 312 0.0 3.2 0.00 0.00 0.00 54 1019.4
20260902152831 20 8 0.0 6.4 0.00 0.00 0.00 53 1019.5
20260902152330 20 293 1.6 8.0 0.00 0.00 0.00 53 1019.6
20260902151830 20 23 6.4 11.3 0.00 0.00 0.00 53 1019.6
20260902151330 20 355 3.2 11.3 0.00 0.00 0.00 53 1019.5
20260902150829 20 12 9.7 11.3 0.00 0.00 0.00 52 1019.6
20260902150329 21 46 1.6 12.9 0.00 0.00 0.00 51 1019.5
20260902145829 21 355 1.6 14.5 0.00 0.00 0.00 50 1019.5
20260902145329 21 316 9.7 19.3 0.00 0.00 0.00 48 1019.5
20260902144828 22 329 12.9 22.5 0.00 0.00 0.00 46 1019.4
20260902144328 23 340 3.2 8.0 0.00 0.00 0.00 39 1019.3
20260902143828 22 298 0.0 11.3 0.00 0.00 0.00 40 1019.2
20260902143327 23 243 6.4 16.1 0.00 0.00 0.00 40 1019.2
20260902142827 23 270 3.2 11.3 0.00 0.00 0.00 39 1019.2
20260902142327 23 217 0.0 6.4 0.00 0.00 0.00 41 1019.2
20260902141827 22 331 0.0 11.3 0.00 0.00 0.00 41 1019.2
20260902141326 22 305 4.8 11.3 0.00 0.00 0.00 41 1019.3
20260902140826 23 254 6.4 12.9 0.00 0.00 0.00 39 1019.2
20260902140326 23 233 0.0 9.7 0.00 0.00 0.00 40 1019.2
20260902135825 23 289 1.6 4.8 0.00 0.00 0.00 39 1019.3
20260902135325 23 306 0.0 4.8 0.00 0.00 0.00 39 1019.3
20260902134825 23 277 1.6 12.9 0.00 0.00 0.00 39 1019.3
20260902134325 22 293 0.0 14.5 0.00 0.00 0.00 39 1019.3
20260902133824 22 234 4.8 12.9 0.00 0.00 0.00 40 1019.4
20260902133324 23 278 6.4 12.9 0.00 0.00 0.00 38 1019.5
20260902132824 23 220 1.6 11.3 0.00 0.00 0.00 39 1019.5
20260902132323 22 250 4.8 12.9 0.00 0.00 0.00 40 1019.6
20260902131823 23 232 8.0 9.7 0.00 0.00 0.00 40 1019.6
20260902131323 22 322 3.2 11.3 0.00 0.00 0.00 39 1019.7
20260902130823 23 222 4.8 8.0 0.00 0.00 0.00 40 1019.8
20260902130322 23 253 4.8 14.5 0.00 0.00 0.00 41 1019.8
20260902125822 23 225 12.9 12.9 0.00 0.00 0.00 41 1019.9
20260902125322 23 244 0.0 9.7 0.00 0.00 0.00 40 1020.0
20260902124821 23 299 4.8 17.7 0.00 0.00 0.00 42 1020.1
20260902124321 23 225 14.5 16.1 0.00 0.00 0.00 40 1020.1
20260902123821 23 320 8.0 11.3 0.00 0.00 0.00 41 1020.2
20260902123321 23 295 1.6 14.5 0.00 0.00 0.00 41 1020.3
20260902122820 23 229 1.6 9.7 0.00 0.00 0.00 41 1020.3
20260902122320 23 305 1.6 6.4 0.00 0.00 0.00 41 1020.4
20260902121820 22 150 0.0 6.4 0.00 0.00 0.00 42 1020.4
20260902121320 22 324 4.8 11.3 0.00 0.00 0.00 42 1020.6
20260902120819 23 288 6.4 16.1 0.00 0.00 0.00 42 1020.7
20260902120319 22 40 0.0 3.2 0.00 0.00 0.00 41 1020.7
20260902115819 22 40 0.0 8.0 0.00 0.00 0.00 42 1020.7
20260902115318 22 7 1.6 8.0 0.00 0.00 0.00 41 1020.8
20260902114818 22 315 1.6 9.7 0.00 0.00 0.00 44 1020.8
20260902114318 21 16 4.8 9.7 0.00 0.00 0.00 44 1020.8
20260902113817 22 247 4.8 8.0 0.00 0.00 0.00 45 1020.9
20260902113317 22 299 0.0 11.3 0.00 0.00 0.00 45 1020.9
20260902112817 22 268 3.2 6.4 0.00 0.00 0.00 46 1020.9
20260902112317 22 281 0.0 8.0 0.00 0.00 0.00 45 1021.0
20260902111816 22 257 4.8 9.7 0.00 0.00 0.00 44 1021.1
20260902111316 22 300 0.0 9.7 0.00 0.00 0.00 46 1021.1
20260902110816 22 251 0.0 6.4 0.00 0.00 0.00 49 1021.2
20260902110316 21 289 0.0 9.7 0.00 0.00 0.00 48 1021.2
20260902105815 21 279 4.8 12.9 0.00 0.00 0.00 48 1021.3
20260902105315 21 316 1.6 11.3 0.00 0.00 0.00 48 1021.4
20260902104815 21 4 4.8 14.5 0.00 0.00 0.00 48 1021.3
20260902104314 21 345 0.0 6.4 0.00 0.00 0.00 50 1021.4
20260902103814 21 306 1.6 11.3 0.00 0.00 0.00 48 1021.4
20260902103314 21 243 9.7 16.1 0.00 0.00 0.00 48 1021.6
20260902102814 21 345 6.4 9.7 0.00 0.00 0.00 48 1021.6
20260902102313 21 206 0.0 12.9 0.00 0.00 0.00 49 1021.6
20260902101813 21 222 1.6 11.3 0.00 0.00 0.00 49 1021.8
20260902101313 21 251 9.7 9.7 0.00 0.00 0.00 49 1021.8
20260902100812 21 293 4.8 11.3 0.00 0.00 0.00 49 1021.9
20260902100312 21 271 1.6 8.0 0.00 0.00 0.00 51 1021.9
20260902095812 20 265 3.2 12.9 0.00 0.00 0.00 50 1022.0
20260902095312 20 317 4.8 14.5 0.00 0.00 0.00 51 1022.1
20260902094811 20 261 8.0 12.9 0.00 0.00 0.00 50 1022.0
20260902094311 20 302 3.2 16.1 0.00 0.00 0.00 49 1022.1
20260902093811 20 257 8.0 17.7 0.00 0.00 0.00 50 1022.1
20260902093310 20 233 8.0 11.3 0.00 0.00 0.00 50 1022.1
20260902092810 20 277 8.0 17.7 0.00 0.00 0.00 49 1022.1
20260902092310 20 330 3.2 14.5 0.00 0.00 0.00 50 1022.1
20260902091810 20 241 11.3 12.9 0.00 0.00 0.00 51 1022.0
20260902091309 20 278 6.4 17.7 0.00 0.00 0.00 49 1022.1
20260902090809 20 241 0.0 11.3 0.00 0.00 0.00 52 1022.1
20260902090309 20 192 4.8 12.9 0.00 0.00 0.00 51 1022.0
20260902085808 20 274 4.8 11.3 0.00 0.00 0.00 52 1022.1
20260902085308 20 25 0.0 9.7 0.00 0.00 0.00 53 1022.1
20260902084808 20 220 3.2 9.7 0.00 0.00 0.00 55 1022.2
20260902084308 20 219 6.4 12.9 0.00 0.00 0.00 53 1022.2
20260902083807 20 305 11.3 11.3 0.00 0.00 0.00 53 1022.2
20260902083307 20 258 8.0 8.0 0.00 0.00 0.00 56 1022.2
20260902082807 20 215 1.6 6.4 0.00 0.00 0.00 57 1022.3
20260902082309 20 246 3.2 8.0 0.00 0.00 0.00 59 1022.3
20260902081806 19 289 3.2 9.7 0.00 0.00 0.00 57 1022.4
20260902081306 19 322 1.6 8.0 0.00 0.00 0.00 59 1022.3
20260902080806 19 240 6.4 9.7 0.00 0.00 0.00 60 1022.3
20260902080305 19 281 4.8 8.0 0.00 0.00 0.00 59 1022.4
20260902075805 18 255 4.8 12.9 0.00 0.00 0.00 60 1022.4
20260902075306 18 237 8.0 9.7 0.00 0.00 0.00 61 1022.3
20260902074804 18 234 1.6 11.3 0.00 0.00 0.00 60 1022.3
20260902074304 18 277 8.0 12.9 0.00 0.00 0.00 61 1022.2
20260902073804 18 189 4.8 11.3 0.00 0.00 0.00 61 1022.3
20260902073304 18 240 1.6 11.3 0.00 0.00 0.00 62 1022.2
20260902072803 18 261 3.2 12.9 0.00 0.00 0.00 63 1022.2
20260902072309 18 240 8.0 11.3 0.00 0.00 0.00 65 1022.2
20260902071803 17 277 1.6 9.7 0.00 0.00 0.00 66 1022.2
20260902071303 17 165 1.6 8.0 0.00 0.00 0.00 67 1022.2
20260902070802 17 244 3.2 8.0 0.00 0.00 0.00 67 1022.2
20260902070302 17 233 6.4 8.0 0.00 0.00 0.00 68 1022.1
20260902065802 16 219 1.6 6.4 0.00 0.00 0.00 69 1022.1
20260902065301 16 236 1.6 6.4 0.00 0.00 0.00 71 1022.0
20260902064801 16 216 3.2 8.0 0.00 0.00 0.00 71 1022.0
20260902064301 16 246 6.4 6.4 0.00 0.00 0.00 71 1022.0
20260902063801 16 132 1.6 4.8 0.00 0.00 0.00 74 1022.0
20260902063300 15 227 1.6 4.8 0.00 0.00 0.00 73 1022.0
20260902062800 15 219 1.6 8.0 0.00 0.00 0.00 74 1022.0
20260902062300 15 229 4.8 6.4 0.00 0.00 0.00 76 1022.0
20260902061759 15 216 4.8 6.4 0.00 0.00 0.00 77 1022.0
20260902061259 15 182 0.0 6.4 0.00 0.00 0.00 78 1022.1
20260902060759 14 246 0.0 8.0 0.00 0.00 0.00 79 1022.1
20260902060259 14 232 3.2 6.4 0.00 0.00 0.00 80 1022.1
20260902055758 13 225 3.2 6.4 0.00 0.00 0.00 81 1022.1
20260902055258 13 255 4.8 8.0 0.00 0.00 0.00 81 1022.0
20260902054758 13 222 6.4 8.0 0.00 0.00 0.00 81 1022.0
20260902054257 13 243 4.8 6.4 0.00 0.00 0.00 81 1022.0
20260902053757 13 213 3.2 8.0 0.00 0.00 0.00 81 1022.0
20260902053257 13 184 0.0 3.2 0.00 0.00 0.00 81 1022.1
20260902052757 13 184 3.2 6.4 0.00 0.00 0.00 81 1022.0
20260902052256 13 229 6.4 6.4 0.00 0.00 0.00 81 1022.0
20260902051756 13 205 4.8 6.4 0.00 0.00 0.00 81 1022.0
20260902051256 13 209 4.8 6.4 0.00 0.00 0.00 82 1021.9
20260902050755 13 261 3.2 9.7 0.00 0.00 0.00 82 1021.8
20260902050255 13 250 4.8 8.0 0.00 0.00 0.00 83 1021.8
20260902045755 13 230 4.8 11.3 0.00 0.00 0.00 83 1021.7
20260902045255 12 223 1.6 9.7 0.00 0.00 0.00 84 1021.7
20260902044755 12 223 3.2 8.0 0.00 0.00 0.00 84 1021.7
20260902044254 12 244 3.2 11.3 0.00 0.00 0.00 85 1021.7
20260902043754 12 241 3.2 9.7 0.00 0.00 0.00 85 1021.6
20260902043254 12 239 4.8 8.0 0.00 0.00 0.00 86 1021.7
20260902042753 12 222 4.8 14.5 0.00 0.00 0.00 86 1021.6
20260902042253 12 227 4.8 8.0 0.00 0.00 0.00 86 1021.6
20260902041753 12 229 4.8 6.4 0.00 0.00 0.00 87 1021.6
20260902041252 12 244 4.8 6.4 0.00 0.00 0.00 87 1021.6
20260902040752 12 254 4.8 8.0 0.00 0.00 0.00 87 1021.6
20260902040252 12 203 3.2 6.4 0.00 0.00 0.00 87 1021.6
20260902035752 12 236 3.2 8.0 0.00 0.00 0.00 87 1021.6
20260902035251 12 227 3.2 6.4 0.00 0.00 0.00 87 1021.4
20260902034751 12 217 4.8 6.4 0.00 0.00 0.00 87 1021.4
20260902034251 12 226 6.4 8.0 0.00 0.00 0.00 87 1021.6
20260902033750 12 261 3.2 8.0 0.00 0.00 0.00 87 1021.4
20260902033250 12 237 3.2 6.4 0.00 0.00 0.00 86 1021.4
20260902032750 12 230 6.4 6.4 0.00 0.00 0.00 86 1021.4
20260902032250 12 213 0.0 8.0 0.00 0.00 0.00 86 1021.4
20260902031749 12 222 0.0 8.0 0.00 0.00 0.00 86 1021.4
20260902031249 12 220 3.2 8.0 0.00 0.00 0.00 86 1021.4
20260902030749 12 222 3.2 9.7 0.00 0.00 0.00 86 1021.4
20260902030248 12 220 6.4 8.0 0.00 0.00 0.00 86 1021.4
20260902025748 12 241 0.0 6.4 0.00 0.00 0.00 87 1021.4
20260902025248 12 253 4.8 6.4 0.00 0.00 0.00 87 1021.3
20260902024748 12 226 3.2 8.0 0.00 0.00 0.00 87 1021.3
20260902024247 12 275 3.2 6.4 0.00 0.00 0.00 86 1021.3
20260902023747 12 240 4.8 4.8 0.00 0.00 0.00 86 1021.3
20260902023247 12 220 3.2 6.4 0.00 0.00 0.00 86 1021.3
20260902022747 12 254 3.2 8.0 0.00 0.00 0.00 86 1021.3
20260902022246 12 246 0.0 6.4 0.00 0.00 0.00 86 1021.3
20260902021746 12 246 1.6 6.4 0.00 0.00 0.00 86 1021.3
20260902021246 12 243 0.0 0.0 0.00 0.00 0.00 86 1021.3
20260902020745 12 243 0.0 0.0 0.00 0.00 0.00 86 1021.3
20260902020245 12 243 0.0 0.0 0.00 0.00 0.00 86 1021.3
20260902015745 12 243 0.0 0.0 0.00 0.00 0.00 86 1021.3
20260902015244 12 243 0.0 0.0 0.00 0.00 0.00 86 1021.3
20260902014744 12 243 0.0 0.0 0.00 0.00 0.00 86 1021.2
20260902014244 12 243 0.0 0.0 0.00 0.00 0.00 86 1021.3
20260902013744 12 243 0.0 0.0 0.00 0.00 0.00 86 1021.3
20260902013243 12 243 0.0 0.0 0.00 0.00 0.00 86 1021.4
20260902012743 12 243 0.0 0.0 0.00 0.00 0.00 86 1021.4
20260902012243 12 243 0.0 3.2 0.00 0.00 0.00 86 1021.4
20260902011742 12 215 3.2 6.4 0.00 0.00 0.00 86 1021.3
20260902011242 12 237 1.6 6.4 0.00 0.00 0.00 86 1021.4
20260902010742 12 220 3.2 4.8 0.00 0.00 0.00 85 1021.4
20260902010242 12 220 3.2 6.4 0.00 0.00 0.00 85 1021.3
20260902005741 12 233 3.2 4.8 0.00 0.00 0.00 85 1021.3
20260902005241 12 237 1.6 6.4 0.00 0.00 0.00 85 1021.2
20260902004741 13 241 3.2 4.8 0.00 0.00 0.00 85 1021.2
20260902004241 13 241 1.6 4.8 0.00 0.00 0.00 85 1021.2
20260902003740 13 239 3.2 4.8 0.00 0.00 0.00 84 1021.1
20260902003240 13 253 0.0 4.8 0.00 0.00 0.00 84 1021.1
20260902002740 13 237 0.0 3.2 0.00 0.00 0.00 84 1021.1
20260902002239 13 205 0.0 4.8 0.00 0.00 0.00 84 1021.0
20260902001739 13 206 1.6 4.8 0.00 0.00 0.00 84 1021.1
20260902001239 13 246 0.0 6.4 0.00 0.00 0.00 84 1021.1
20260902000739 13 222 1.6 4.8 0.00 0.00 0.00 84 1021.1
20260902000241 13 230 1.6 4.8 0.00 0.00 0.00 84 1021.1
20260901235738 13 223 1.6 6.4 0.00 0.00 0.00 84 1021.1
20260901235238 13 258 6.4 8.0 0.00 0.00 0.00 84 1021.1
20260901234737 13 253 3.2 3.2 0.00 0.00 0.00 84 1021.0
20260901234237 13 226 0.0 0.0 0.00 0.00 0.00 83 1021.0
20260901233737 13 226 0.0 4.8 0.00 0.00 0.00 83 1021.0
20260901233237 13 246 4.8 6.4 0.00 0.00 0.00 83 1020.9
20260901232736 13 236 3.2 3.2 0.00 0.00 0.00 83 1020.8
20260901232236 13 220 0.0 0.0 0.00 0.00 0.00 83 1020.8
20260901231736 13 220 0.0 0.0 0.00 0.00 0.00 83 1020.8
20260901231235 13 220 0.0 4.8 0.00 0.00 0.00 83 1020.7
20260901230735 13 227 3.2 4.8 0.00 0.00 0.00 83 1020.7
20260901230235 13 248 3.2 4.8 0.00 0.00 0.00 83 1020.7
20260901225735 13 210 1.6 4.8 0.00 0.00 0.00 83 1020.7
20260901225234 13 244 4.8 6.4 0.00 0.00 0.00 83 1020.6
20260901224734 13 213 3.2 6.4 0.00 0.00 0.00 84 1020.6
20260901224234 13 226 0.0 1.6 0.00 0.00 0.00 84 1020.6
20260901223733 13 244 1.6 1.6 0.00 0.00 0.00 84 1020.6
20260901223233 13 226 0.0 4.8 0.00 0.00 0.00 84 1020.6
20260901222733 13 251 1.6 3.2 0.00 0.00 0.00 85 1020.7
20260901222233 13 226 3.2 8.0 0.00 0.00 0.00 85 1020.6
20260901221732 13 237 1.6 6.4 0.00 0.00 0.00 85 1020.6
20260901221232 13 233 1.6 4.8 0.00 0.00 0.00 85 1020.7
20260901220732 13 233 0.0 1.6 0.00 0.00 0.00 84 1020.6
20260901220231 13 215 0.0 0.0 0.00 0.00 0.00 84 1020.6
20260901215731 13 215 0.0 0.0 0.00 0.00 0.00 83 1020.5
20260901215231 13 215 0.0 0.0 0.00 0.00 0.00 83 1020.5
20260901214731 13 215 0.0 0.0 0.00 0.00 0.00 83 1020.6
20260901214230 13 215 0.0 0.0 0.00 0.00 0.00 83 1020.6
20260901213730 13 215 0.0 0.0 0.00 0.00 0.00 83 1020.5
20260901213230 13 215 0.0 0.0 0.00 0.00 0.00 82 1020.5
20260901212729 13 215 0.0 0.0 0.00 0.00 0.00 82 1020.4
20260901212229 13 215 0.0 0.0 0.00 0.00 0.00 82 1020.4
20260901211729 13 215 0.0 0.0 0.00 0.00 0.00 82 1020.4
20260901211229 13 215 0.0 1.6 0.00 0.00 0.00 82 1020.4
20260901210728 13 208 0.0 1.6 0.00 0.00 0.00 83 1020.3
20260901210228 13 312 0.0 0.0 0.00 0.00 0.00 82 1020.3
20260901205728 13 312 0.0 0.0 0.00 0.00 0.00 82 1020.2
20260901205227 13 312 0.0 0.0 0.00 0.00 0.00 81 1020.2
20260901204727 13 312 0.0 0.0 0.00 0.00 0.00 81 1020.2
20260901204227 14 312 0.0 0.0 0.00 0.00 0.00 81 1020.1
20260901203727 14 312 0.0 0.0 0.00 0.00 0.00 81 1020.1
20260901203226 14 312 0.0 0.0 0.00 0.00 0.00 81 1020.1
20260901202726 14 312 0.0 0.0 0.00 0.00 0.00 81 1020.1
20260901202226 13 312 0.0 0.0 0.00 0.00 0.00 82 1020.1
20260901201725 13 312 0.0 0.0 0.00 0.00 0.00 83 1020.1
20260901201225 13 312 0.0 0.0 0.00 0.00 0.00 84 1020.0
20260901200725 13 312 0.0 0.0 0.00 0.00 0.00 83 1020.0
20260901200225 13 312 0.0 0.0 0.00 0.00 0.00 83 1020.0
20260901195724 13 312 0.0 0.0 0.00 0.00 0.00 83 1019.9
20260901195224 13 312 0.0 0.0 0.00 0.00 0.00 82 1020.0
20260901194724 13 312 0.0 0.0 0.00 0.00 0.00 82 1019.9
20260901194224 13 312 0.0 0.0 0.00 0.00 0.00 83 1019.9
20260901193723 13 312 0.0 0.0 0.00 0.00 0.00 83 1019.9
20260901193223 13 312 0.0 0.0 0.00 0.00 0.00 82 1019.9
20260901192723 13 312 0.0 0.0 0.00 0.00 0.00 81 1019.8
20260901192222 13 312 0.0 0.0 0.00 0.00 0.00 81 1019.8
20260901191722 13 312 0.0 0.0 0.00 0.00 0.00 81 1019.9
20260901191222 13 312 0.0 0.0 0.00 0.00 0.00 80 1019.8
20260901190722 13 312 0.0 0.0 0.00 0.00 0.00 80 1019.8
20260901190221 13 312 0.0 0.0 0.00 0.00 0.00 79 1019.7
20260901185721 14 312 0.0 0.0 0.00 0.00 0.00 79 1019.8
20260901185221 14 312 0.0 0.0 0.00 0.00 0.00 78 1019.8
20260901184720 14 312 0.0 0.0 0.00 0.00 0.00 77 1019.7
20260901184220 14 312 0.0 0.0 0.00 0.00 0.00 77 1019.7
20260901183720 14 312 0.0 0.0 0.00 0.00 0.00 76 1019.6
20260901183220 15 312 0.0 0.0 0.00 0.00 0.00 75 1019.6
20260901182719 15 312 0.0 0.0 0.00 0.00 0.00 75 1019.5
20260901182219 15 312 0.0 0.0 0.00 0.00 0.00 74 1019.5
20260901181719 15 312 0.0 0.0 0.00 0.00 0.00 73 1019.5
20260901181218 15 312 0.0 0.0 0.00 0.00 0.00 72 1019.5
20260901180718 15 312 0.0 0.0 0.00 0.00 0.00 71 1019.4
20260901180218 16 312 0.0 0.0 0.00 0.00 0.00 70 1019.3
20260901175718 16 312 0.0 0.0 0.00 0.00 0.00 69 1019.2
20260901175217 16 312 0.0 0.0 0.00 0.00 0.00 68 1019.2
20260901174717 16 312 0.0 0.0 0.00 0.00 0.00 66 1019.1
20260901174217 17 312 0.0 0.0 0.00 0.00 0.00 64 1019.0
20260901173716 17 312 0.0 0.0 0.00 0.00 0.00 63 1019.0
20260901173216 17 312 0.0 0.0 0.00 0.00 0.00 61 1019.0
20260901172716 18 312 0.0 0.0 0.00 0.00 0.00 58 1019.0
20260901172216 18 312 0.0 0.0 0.00 0.00 0.00 54 1018.9
20260901171715 19 312 0.0 0.0 0.00 0.00 0.00 51 1018.8
20260901171215 19 312 0.0 3.2 0.00 0.00 0.00 50 1018.8
20260901170715 19 303 0.0 6.4 0.00 0.00 0.00 50 1018.7
20260901170214 20 305 3.2 3.2 0.00 0.00 0.00 49 1018.7
20260901165714 20 271 0.0 4.8 0.00 0.00 0.00 49 1018.7
20260901165214 20 320 3.2 8.0 0.00 0.00 0.00 48 1018.7
20260901164714 20 251 0.0 4.8 0.00 0.00 0.00 47 1018.7
20260901164213 20 324 0.0 9.7 0.00 0.00 0.00 47 1018.6
20260901163713 20 320 0.0 6.4 0.00 0.00 0.00 46 1018.5
20260901163213 20 303 6.4 12.9 0.00 0.00 0.00 45 1018.5
20260901162712 21 279 0.0 11.3 0.00 0.00 0.00 45 1018.4
20260901162212 21 250 1.6 11.3 0.00 0.00 0.00 44 1018.3
20260901161712 21 258 4.8 17.7 0.00 0.00 0.00 43 1018.4
20260901161212 21 295 3.2 17.7 0.00 0.00 0.00 44 1018.3
20260901160711 21 337 3.2 11.3 0.00 0.00 0.00 43 1018.2
20260901160211 21 345 4.8 12.9 0.00 0.00 0.00 43 1018.2
20260901155711 21 357 0.0 11.3 0.00 0.00 0.00 44 1018.2
20260901155211 21 277 0.0 12.9 0.00 0.00 0.00 43 1018.2
20260901154710 21 258 0.0 8.0 0.00 0.00 0.00 43 1018.2
20260901154210 21 219 0.0 12.9 0.00 0.00 0.00 43 1018.1